sat.trackr.live / text

‹ back to catalog

STARLINK-3219

NORAD 49724 · 2021-115A

PAYLOAD ACTIVE UNKNOWN

§ Identity

Operator
Country
US
Launch date
2021-12-02
Launch site
AFETR
Launch vehicle
Mass (kg)
RCS (m²)

Purposes: comms

External: N2YO · Heavens-Above · Gunter

§ Orbital elements

Epoch: 2026-05-24T18:18:35.987328Z

Period
95.44 min
Inclination
53.2133°
Eccentricity
0.0001082
Mean motion
15.08832258 rev/d
Perigee alt
539.0 km
Apogee alt
540.5 km
Semi-major
6,917.9 km
B*
-1.4134e-5
RAAN
167.8380°
Arg perigee
76.4625°
Mean anomaly
283.6488°
Rev number
24,701

§ Raw data

STARLINK-32191 49724U 21115A   26144.76291652 -.00000513  00000+0 -14134-4 0  99982 49724  53.2133 167.8380 0001082  76.4625 283.6488 15.08832258247014

JSON: /api/v1/satellites/49724 · /tle

For live sub-satellite position, see the globe view (requires WebGL).

§ Visibility from observer

Set your observer location to see the next 7 days of passes ≥ 10°. The values pass through the URL so the page stays shareable.

No JS? Fill the form by hand. The geolocation button needs JavaScript.